Change the Weather History Date:

Sunday, October 9, 2011

  Actual Average Record
Temperature  
Mean Temperature 69 °F 63 °F  
Max Temperature 82 °F 75 °F 91 °F (1928)
Min Temperature 56 °F 52 °F 26 °F (1917)
Degree Days  
Heating Degree Days 0 4  
Month to date heating degree days 21 28  
Since 1 July heating degree days 30 46  
Cooling Degree Days 4 2  
Month to date cooling degree days 18 26  
Year to date cooling degree days 2190 1797  
Growing Degree Days 19 (Base 50)    
Moisture  
Dew Point 51 °F    
Average Humidity 57    
Maximum Humidity 80    
Minimum Humidity 33    
Precipitation  
Precipitation 0.00 in 0.13 in 3.05 in (1919)
Month to date precipitation 0.00 1.25  
Year to date precipitation 37.27 35.42  
Snow  
Snow 0.00 in 0.00 in T in (2000)
Month to date snowfall 0.0 0.0  
Since 1 July snowfall 0.0 0.0  
Since 1 September snowfall 0.0 0.0  
Snow Depth -    
Sea Level Pressure  
Sea Level Pressure 30.18 in    
Wind  
Wind Speed 8 mph (East)    
Max Wind Speed 15 mph    
Max Gust Speed 25 mph    
Visibility 10 miles    
Events      
T = Trace of Precipitation, MM = Missing Value Source: NWS Daily Summary

Daily Weather History Graph

Daily Weather History Graph

Search for Another Location

Airport or City:

Trip Planner

Search our weather history database for the weather conditions in past years. The results will help you decide how hot, cold, wet, or windy it might be!

Date:

Astronomy

Oct. 09, 2011 Rise Set
Actual Time 7:03 AM CDT 6:35 PM CDT
Civil Twilight 6:38 AM CDT 7:00 PM CDT
Nautical Twilight 6:08 AM CDT 7:30 PM CDT
Astronomical Twilight 5:38 AM CDT 8:00 PM CDT
Moon 5:10 PM CDT (10/9) 4:51 AM CDT (10/9)
Length of Visible Light 12h 22m
Length of Day
11h 31m
Waxing Gibbous, 95% of the Moon is Illuminated
Oct 9
Waxing Gibbous
Oct 11
Full
Oct 19
Last Quarter
Oct 26
New
Nov 2
First Quarter

Hourly Weather History & Observations

Time (CDT) Temp. Dew Point Humidity Pressure Visibility Wind Dir Wind Speed Gust Speed Precip Events Conditions
12:53 AM 60.1 °F 53.1 °F 78% 30.22 in 10.0 mi East 6.9 mph - N/A   Clear
1:53 AM 59.0 °F 53.1 °F 81% 30.22 in 10.0 mi East 5.8 mph - N/A   Clear
2:53 AM 60.1 °F 53.1 °F 78% 30.22 in 10.0 mi ENE 4.6 mph - N/A   Clear
3:53 AM 59.0 °F 53.1 °F 81% 30.20 in 10.0 mi NE 4.6 mph - N/A   Clear
4:53 AM 57.0 °F 52.0 °F 83% 30.21 in 10.0 mi NE 5.8 mph - N/A   Clear
5:53 AM 57.0 °F 52.0 °F 83% 30.22 in 10.0 mi NE 5.8 mph - N/A   Clear
6:53 AM 57.0 °F 52.0 °F 83% 30.24 in 10.0 mi NE 6.9 mph - N/A   Clear
7:53 AM 59.0 °F 53.6 °F 82% 30.25 in 7.0 mi NE 6.9 mph - N/A   Clear
8:53 AM 63.0 °F 55.0 °F 75% 30.25 in 10.0 mi East 6.9 mph - N/A   Clear
9:53 AM 70.0 °F 52.0 °F 53% 30.26 in 10.0 mi SE 9.2 mph - N/A   Clear
10:53 AM 73.9 °F 52.0 °F 46% 30.25 in 10.0 mi SSE 12.7 mph - N/A   Clear
11:53 AM 77.0 °F 52.0 °F 42% 30.22 in 10.0 mi SSE 11.5 mph - N/A   Clear
12:53 PM 79.0 °F 52.0 °F 39% 30.20 in 10.0 mi SE 10.4 mph - N/A   Clear
1:53 PM 80.1 °F 50.0 °F 35% 30.16 in 10.0 mi SE 9.2 mph 18.4 mph N/A   Partly Cloudy
2:53 PM 80.6 °F 51.8 °F 37% 30.14 in 10.0 mi East 10.4 mph - N/A   Partly Cloudy
3:53 PM 81.0 °F 48.9 °F 33% 30.12 in 10.0 mi Variable 6.9 mph - N/A   Clear
4:53 PM 81.0 °F 48.0 °F 31% 30.10 in 10.0 mi ESE 10.4 mph - N/A   Clear
5:53 PM 78.1 °F 48.9 °F 36% 30.09 in 10.0 mi East 10.4 mph - N/A   Clear
6:53 PM 70.0 °F 50.0 °F 49% 30.10 in 10.0 mi ENE 5.8 mph - N/A   Clear
7:53 PM 68.0 °F 50.0 °F 52% 30.11 in 10.0 mi NE 5.8 mph - N/A   Clear
8:53 PM 66.0 °F 50.0 °F 56% 30.12 in 10.0 mi NE 8.1 mph - N/A   Clear
9:53 PM 64.0 °F 51.1 °F 63% 30.12 in 10.0 mi ENE 8.1 mph - N/A   Clear
10:53 PM 63.0 °F 51.1 °F 65% 30.13 in 10.0 mi ENE 5.8 mph - N/A   Clear
11:53 PM 61.0 °F 51.1 °F 70% 30.12 in 10.0 mi ENE 6.9 mph - N/A   Clear